| time (UTC) | temp F | wind direction | speed MPH | gust MPH | rain 1hr in | rain 24hr in | rain mn in | humidity % | barometer mb |
| 20260510211020 | 75 | 0 | 1.0 | 4.0 | 0.00 | 0.00 | 0.00 | 40 | 1016.5 |
| 20260510210020 | 75 | 338 | 2.0 | 6.0 | 0.00 | 0.00 | 0.00 | 40 | 1016.4 |
| 20260510205039 | 74 | 0.0 | 2.0 | 0.00 | 0.00 | 0.00 | 48 | 1016.4 | |
| 20260510204020 | 74 | 0.0 | 3.0 | 0.00 | 0.00 | 0.00 | 49 | 1016.5 | |
| 20260510203023 | 75 | 338 | 2.0 | 5.0 | 0.00 | 0.00 | 0.00 | 44 | 1016.6 |
| 20260510202020 | 75 | 315 | 1.0 | 3.0 | 0.00 | 0.00 | 0.00 | 44 | 1016.4 |
| 20260510201040 | 75 | 338 | 2.0 | 5.0 | 0.00 | 0.00 | 0.00 | 45 | 1016.4 |
| 20260510200020 | 75 | 338 | 1.0 | 3.0 | 0.00 | 0.00 | 0.00 | 48 | 1016.4 |
| 20260510195019 | 74 | 315 | 1.0 | 7.0 | 0.00 | 0.00 | 0.00 | 47 | 1016.5 |
| 20260510194019 | 74 | 338 | 2.0 | 5.0 | 0.00 | 0.00 | 0.00 | 50 | 1016.3 |
| 20260510193040 | 74 | 0.0 | 2.0 | 0.00 | 0.00 | 0.00 | 50 | 1016.4 | |
| 20260510192020 | 74 | 315 | 1.0 | 3.0 | 0.00 | 0.00 | 0.00 | 59 | 1016.4 |
| 20260510191019 | 74 | 0 | 1.0 | 5.0 | 0.00 | 0.00 | 0.00 | 52 | 1016.3 |
| 20260510190040 | 74 | 338 | 1.0 | 3.0 | 0.00 | 0.00 | 0.00 | 54 | 1016.3 |
| 20260510185040 | 74 | 338 | 1.0 | 3.0 | 0.00 | 0.00 | 0.00 | 57 | 1016.5 |
| 20260510184022 | 74 | 338 | 2.0 | 4.0 | 0.00 | 0.00 | 0.00 | 54 | 1016.3 |
| 20260510183040 | 75 | 315 | 1.0 | 5.0 | 0.00 | 0.00 | 0.00 | 56 | 1016.4 |
| 20260510182022 | 75 | 338 | 1.0 | 4.0 | 0.00 | 0.00 | 0.00 | 56 | 1016.3 |
| 20260510181020 | 75 | 0 | 2.0 | 5.0 | 0.00 | 0.00 | 0.00 | 62 | 1016.5 |
| 20260510180020 | 74 | 293 | 1.0 | 6.0 | 0.00 | 0.00 | 0.00 | 60 | 1016.5 |
| 20260510175019 | 74 | 338 | 1.0 | 3.0 | 0.00 | 0.00 | 0.00 | 60 | 1016.4 |
| 20260510174020 | 74 | 315 | 2.0 | 8.0 | 0.00 | 0.00 | 0.00 | 63 | 1016.5 |
| 20260510173020 | 73 | 0.0 | 3.0 | 0.00 | 0.00 | 0.00 | 66 | 1016.5 | |
| 20260510172040 | 74 | 338 | 1.0 | 4.0 | 0.00 | 0.00 | 0.00 | 65 | 1016.6 |
| 20260510171020 | 72 | 338 | 2.0 | 4.0 | 0.00 | 0.00 | 0.00 | 64 | 1016.5 |
| 20260510170040 | 73 | 338 | 2.0 | 5.0 | 0.00 | 0.00 | 0.00 | 63 | 1016.4 |
| 20260510165019 | 73 | 315 | 1.0 | 4.0 | 0.00 | 0.00 | 0.00 | 63 | 1016.5 |
| 20260510164020 | 72 | 338 | 1.0 | 3.0 | 0.00 | 0.00 | 0.00 | 63 | 1016.4 |
| 20260510163020 | 73 | 338 | 2.0 | 5.0 | 0.00 | 0.00 | 0.00 | 61 | 1016.4 |
| 20260510162019 | 73 | 315 | 1.0 | 3.0 | 0.00 | 0.00 | 0.00 | 62 | 1016.3 |
| 20260510161020 | 73 | 225 | 1.0 | 3.0 | 0.00 | 0.00 | 0.00 | 68 | 1016.1 |
| 20260510160020 | 72 | 0.0 | 3.0 | 0.00 | 0.00 | 0.00 | 65 | 1016.1 | |
| 20260510155020 | 72 | 225 | 1.0 | 3.0 | 0.00 | 0.00 | 0.00 | 65 | 1016.0 |
| 20260510154019 | 71 | 0 | 1.0 | 3.0 | 0.00 | 0.00 | 0.00 | 69 | 1015.8 |
| 20260510153020 | 70 | 0.0 | 1.0 | 0.00 | 0.00 | 0.00 | 68 | 1015.8 | |
| 20260510152020 | 70 | 23 | 1.0 | 4.0 | 0.00 | 0.00 | 0.00 | 65 | 1015.8 |
| 20260510151020 | 70 | 0.0 | 3.0 | 0.00 | 0.00 | 0.00 | 68 | 1015.8 | |
| 20260510150040 | 69 | 248 | 1.0 | 3.0 | 0.00 | 0.00 | 0.00 | 70 | 1015.8 |
| 20260510145020 | 68 | 0.0 | 2.0 | 0.00 | 0.00 | 0.00 | 70 | 1015.8 | |
| 20260510144020 | 67 | 0 | 1.0 | 4.0 | 0.00 | 0.00 | 0.00 | 72 | 1015.7 |
| 20260510143040 | 67 | 338 | 1.0 | 4.0 | 0.00 | 0.00 | 0.00 | 72 | 1015.8 |
| 20260510142019 | 67 | 338 | 1.0 | 3.0 | 0.00 | 0.00 | 0.00 | 73 | 1015.7 |
| 20260510141020 | 67 | 0.0 | 3.0 | 0.00 | 0.00 | 0.00 | 75 | 1015.6 | |
| 20260510140022 | 66 | 0.0 | 2.0 | 0.00 | 0.00 | 0.00 | 77 | 1015.5 | |
| 20260510135020 | 65 | 225 | 1.0 | 4.0 | 0.00 | 0.00 | 0.00 | 77 | 1015.4 |
| 20260510134020 | 63 | 0.0 | 3.0 | 0.00 | 0.00 | 0.00 | 82 | 1015.2 | |
| 20260510133019 | 62 | 0.0 | 0.0 | 0.00 | 0.00 | 0.00 | 82 | 1015.2 | |
| 20260510132020 | 62 | 0.0 | 0.0 | 0.00 | 0.00 | 0.00 | 83 | 1015.1 | |
| 20260510131020 | 62 | 0.0 | 0.0 | 0.00 | 0.00 | 0.00 | 84 | 1015.1 | |
| 20260510130021 | 61 | 0.0 | 0.0 | 0.00 | 0.00 | 0.00 | 85 | 1015.0 | |
| 20260510125019 | 60 | 0.0 | 0.0 | 0.00 | 0.00 | 0.00 | 86 | 1014.9 | |
| 20260510124022 | 59 | 0.0 | 1.0 | 0.00 | 0.00 | 0.00 | 88 | 1014.7 | |
| 20260510123040 | 58 | 0.0 | 0.0 | 0.00 | 0.00 | 0.00 | 94 | 1014.4 | |
| 20260510122020 | 58 | 0.0 | 0.0 | 0.00 | 0.00 | 0.00 | 94 | 1014.1 | |
| 20260510121020 | 57 | 0.0 | 0.0 | 0.00 | 0.00 | 0.00 | 94 | 1013.9 | |
| 20260510120040 | 56 | 0.0 | 0.0 | 0.00 | 0.00 | 0.00 | 94 | 1013.8 | |
| 20260510115020 | 56 | 0.0 | 0.0 | 0.00 | 0.00 | 0.00 | 95 | 1013.7 | |
| 20260510114020 | 55 | 0.0 | 0.0 | 0.00 | 0.00 | 0.00 | 95 | 1013.6 | |
| 20260510113020 | 55 | 0.0 | 0.0 | 0.00 | 0.00 | 0.00 | 96 | 1013.8 | |
| 20260510112040 | 55 | 0.0 | 0.0 | 0.00 | 0.00 | 0.00 | 96 | 1013.8 | |
| 20260510111020 | 54 | 0.0 | 0.0 | 0.00 | 0.00 | 0.00 | 96 | 1013.7 | |
| 20260510110020 | 54 | 0.0 | 0.0 | 0.00 | 0.00 | 0.00 | 96 | 1013.7 | |
| 20260510105019 | 54 | 0.0 | 0.0 | 0.00 | 0.00 | 0.00 | 96 | 1013.6 | |
| 20260510104020 | 54 | 0.0 | 0.0 | 0.00 | 0.00 | 0.00 | 96 | 1013.3 | |
| 20260510103040 | 53 | 0.0 | 0.0 | 0.00 | 0.00 | 0.00 | 96 | 1013.2 | |
| 20260510102020 | 53 | 0.0 | 0.0 | 0.00 | 0.00 | 0.00 | 96 | 1012.8 | |
| 20260510101020 | 53 | 0.0 | 0.0 | 0.00 | 0.00 | 0.00 | 96 | 1012.9 | |
| 20260510100020 | 53 | 0.0 | 0.0 | 0.00 | 0.00 | 0.00 | 96 | 1012.7 | |
| 20260510095020 | 52 | 0.0 | 0.0 | 0.00 | 0.00 | 0.00 | 96 | 1012.9 | |
| 20260510094020 | 52 | 0.0 | 0.0 | 0.00 | 0.00 | 0.00 | 96 | 1012.9 | |
| 20260510093020 | 52 | 0.0 | 0.0 | 0.00 | 0.00 | 0.00 | 96 | 1012.9 | |
| 20260510092022 | 52 | 0.0 | 1.0 | 0.00 | 0.00 | 0.00 | 96 | 1012.7 | |
| 20260510091020 | 52 | 0.0 | 0.0 | 0.00 | 0.00 | 0.00 | 96 | 1012.3 | |
| 20260510090020 | 52 | 0.0 | 0.0 | 0.00 | 0.00 | 0.00 | 96 | 1012.3 | |
| 20260510085029 | 52 | 0.0 | 0.0 | 0.00 | 0.00 | 0.00 | 96 | 1012.3 | |
| 20260510084020 | 53 | 0.0 | 0.0 | 0.00 | 0.00 | 0.00 | 96 | 1012.4 | |
| 20260510083020 | 52 | 0.0 | 0.0 | 0.00 | 0.00 | 0.00 | 96 | 1012.2 | |
| 20260510082019 | 52 | 0.0 | 0.0 | 0.00 | 0.00 | 0.00 | 96 | 1012.2 | |
| 20260510081020 | 52 | 0.0 | 0.0 | 0.00 | 0.00 | 0.00 | 95 | 1012.1 | |
| 20260510080020 | 52 | 0.0 | 0.0 | 0.00 | 0.00 | 0.00 | 95 | 1012.0 | |
| 20260510075020 | 52 | 0.0 | 0.0 | 0.00 | 0.00 | 0.00 | 95 | 1011.8 | |
| 20260510074019 | 52 | 0.0 | 0.0 | 0.00 | 0.00 | 0.00 | 95 | 1011.6 | |
| 20260510073020 | 52 | 0.0 | 0.0 | 0.00 | 0.00 | 0.00 | 95 | 1011.7 | |
| 20260510072020 | 52 | 0.0 | 0.0 | 0.00 | 0.00 | 0.00 | 95 | 1011.7 | |
| 20260510071020 | 52 | 0.0 | 0.0 | 0.00 | 0.00 | 0.00 | 95 | 1011.6 | |
| 20260510070019 | 52 | 0.0 | 0.0 | 0.00 | 0.00 | 0.00 | 95 | 1011.5 | |
| 20260510065022 | 52 | 0.0 | 0.0 | 0.00 | 0.00 | 0.00 | 94 | 1011.4 | |
| 20260510064040 | 52 | 0.0 | 0.0 | 0.00 | 0.00 | 0.00 | 94 | 1011.4 | |
| 20260510063020 | 53 | 0.0 | 0.0 | 0.00 | 0.00 | 0.00 | 94 | 1011.5 | |
| 20260510062020 | 53 | 0.0 | 0.0 | 0.00 | 0.00 | 0.00 | 93 | 1011.6 | |
| 20260510061021 | 53 | 0.0 | 0.0 | 0.00 | 0.00 | 0.00 | 93 | 1011.6 | |
| 20260510060040 | 53 | 0.0 | 0.0 | 0.00 | 0.00 | 0.00 | 93 | 1011.6 | |
| 20260510055020 | 53 | 0.0 | 0.0 | 0.00 | 0.00 | 0.00 | 93 | 1011.7 | |
| 20260510054020 | 54 | 0.0 | 0.0 | 0.00 | 0.00 | 0.00 | 92 | 1011.8 | |
| 20260510053020 | 54 | 0.0 | 0.0 | 0.00 | 0.00 | 0.00 | 92 | 1011.7 | |
| 20260510052020 | 54 | 0.0 | 0.0 | 0.00 | 0.00 | 0.00 | 92 | 1011.7 | |
| 20260510051022 | 54 | 0.0 | 0.0 | 0.00 | 0.00 | 0.00 | 91 | 1011.7 | |
| 20260510050020 | 54 | 0.0 | 0.0 | 0.00 | 0.00 | 0.00 | 91 | 1011.8 | |
| 20260510045020 | 55 | 0.0 | 0.0 | 0.00 | 0.00 | 0.00 | 90 | 1011.8 | |
| 20260510044040 | 55 | 0.0 | 0.0 | 0.00 | 0.00 | 0.00 | 90 | 1011.8 | |
| 20260510043040 | 55 | 0.0 | 0.0 | 0.00 | 0.00 | 0.00 | 89 | 1011.8 | |
| 20260510042020 | 55 | 0.0 | 0.0 | 0.00 | 0.00 | 0.00 | 89 | 1011.6 | |
| 20260510041020 | 56 | 0.0 | 0.0 | 0.00 | 0.00 | 0.00 | 88 | 1011.6 | |
| 20260510040020 | 56 | 0.0 | 0.0 | 0.00 | 0.00 | 0.00 | 87 | 1011.7 | |
| 20260510035020 | 56 | 0.0 | 0.0 | 0.00 | 0.00 | 0.00 | 87 | 1011.7 | |
| 20260510034021 | 56 | 0.0 | 0.0 | 0.00 | 0.00 | 0.00 | 86 | 1011.8 | |
| 20260510033020 | 57 | 0.0 | 0.0 | 0.00 | 0.00 | 0.00 | 86 | 1011.8 | |
| 20260510032020 | 57 | 0.0 | 0.0 | 0.00 | 0.00 | 0.00 | 85 | 1011.8 | |
| 20260510031020 | 57 | 0.0 | 0.0 | 0.00 | 0.00 | 0.00 | 84 | 1011.7 | |
| 20260510030020 | 58 | 0.0 | 0.0 | 0.00 | 0.00 | 0.00 | 83 | 1011.6 | |
| 20260510025020 | 58 | 0.0 | 0.0 | 0.00 | 0.00 | 0.00 | 82 | 1011.5 | |
| 20260510024020 | 58 | 0.0 | 0.0 | 0.00 | 0.00 | 0.00 | 81 | 1011.5 | |
| 20260510023020 | 59 | 0.0 | 0.0 | 0.00 | 0.00 | 0.00 | 80 | 1011.3 | |
| 20260510022020 | 59 | 0.0 | 0.0 | 0.00 | 0.00 | 0.00 | 79 | 1011.2 | |
| 20260510021022 | 60 | 0.0 | 0.0 | 0.00 | 0.00 | 0.00 | 78 | 1010.9 | |
| 20260510020020 | 61 | 0.0 | 0.0 | 0.00 | 0.00 | 0.00 | 75 | 1010.7 | |
| 20260510015020 | 61 | 0.0 | 0.0 | 0.00 | 0.00 | 0.00 | 74 | 1010.6 | |
| 20260510014020 | 62 | 0.0 | 0.0 | 0.00 | 0.00 | 0.00 | 72 | 1010.6 | |
| 20260510013020 | 63 | 0.0 | 0.0 | 0.00 | 0.00 | 0.00 | 69 | 1010.2 | |
| 20260510012020 | 65 | 0.0 | 0.0 | 0.00 | 0.00 | 0.00 | 66 | 1010.2 | |
| 20260510011020 | 66 | 0.0 | 0.0 | 0.00 | 0.00 | 0.00 | 62 | 1010.1 | |
| 20260510010020 | 68 | 0.0 | 0.0 | 0.00 | 0.00 | 0.00 | 59 | 1009.9 | |
| 20260510005022 | 69 | 0.0 | 1.0 | 0.00 | 0.00 | 0.00 | 55 | 1009.7 | |
| 20260510004020 | 70 | 0.0 | 2.0 | 0.00 | 0.00 | 0.00 | 54 | 1009.6 | |
| 20260510003020 | 71 | 0.0 | 1.0 | 0.00 | 0.00 | 0.00 | 53 | 1009.4 | |
| 20260510002040 | 72 | 0.0 | 5.0 | 0.00 | 0.00 | 0.00 | 50 | 1009.3 | |
| 20260510001020 | 72 | 0.0 | 3.0 | 0.00 | 0.00 | 0.00 | 50 | 1009.1 | |
| 20260510000040 | 73 | 0.0 | 2.0 | 0.00 | 0.00 | 0.00 | 50 | 1009.0 | |
| 20260509235020 | 73 | 0.0 | 4.0 | 0.00 | 0.00 | 0.00 | 47 | 1008.9 | |
| 20260509234020 | 74 | 270 | 1.0 | 4.0 | 0.00 | 0.00 | 0.00 | 46 | 1008.8 |
| 20260509233019 | 75 | 180 | 1.0 | 3.0 | 0.00 | 0.00 | 0.00 | 47 | 1008.9 |
| 20260509232019 | 75 | 225 | 1.0 | 5.0 | 0.00 | 0.00 | 0.00 | 44 | 1008.9 |
| 20260509231020 | 76 | 135 | 1.0 | 8.0 | 0.00 | 0.00 | 0.00 | 44 | 1008.9 |
| 20260509230020 | 77 | 0.0 | 2.0 | 0.00 | 0.00 | 0.00 | 42 | 1008.9 | |
| 20260509225020 | 78 | 0 | 1.0 | 6.0 | 0.00 | 0.00 | 0.00 | 42 | 1008.9 |
| 20260509224020 | 78 | 225 | 2.0 | 8.0 | 0.00 | 0.00 | 0.00 | 44 | 1008.8 |
| 20260509223020 | 78 | 248 | 1.0 | 5.0 | 0.00 | 0.00 | 0.00 | 47 | 1008.9 |
| 20260509222020 | 78 | 225 | 2.0 | 5.0 | 0.00 | 0.00 | 0.00 | 44 | 1008.9 |
| 20260509221020 | 78 | 338 | 1.0 | 7.0 | 0.00 | 0.00 | 0.00 | 45 | 1008.9 |
| 20260509220020 | 79 | 225 | 1.0 | 4.0 | 0.00 | 0.00 | 0.00 | 43 | 1008.9 |
| 20260509215020 | 79 | 90 | 1.0 | 3.0 | 0.00 | 0.00 | 0.00 | 43 | 1008.8 |
| 20260509214020 | 79 | 293 | 1.0 | 3.0 | 0.00 | 0.00 | 0.00 | 43 | 1008.9 |
| 20260509213019 | 79 | 270 | 1.0 | 3.0 | 0.00 | 0.00 | 0.00 | 44 | 1009.1 |
| 20260509212020 | 78 | 248 | 1.0 | 5.0 | 0.00 | 0.00 | 0.00 | 45 | 1009.0 |